Find OneWeb SL0298

NORAD ID: 49087 Int'l Des: 2021-075 Owner: ONEWEBN Country: UK Constellation: oneweb operational
LEOCIRCULARPOLARONEWEB_TYPE

当前视图

正在加载3D地球...

About OneWeb SL0298

OneWeb SL0298 (NORAD 49087) is a oneweb constellation satellite launched Aug 21, 2021 by ONEWEBN of UK. It operates in LEO, CIRCULAR, POLAR, ONEWEB_TYPE orbit with a mass of 148.00 kg.

关于 OneWeb SL0298

正在加载描述...

即将过境

Passes for default location (London). Set your location on the main map for personalized predictions.

高度历史

Loading altitude history...

两行轨道根数

1 49087U 21075N 26169.10333980 -.00000044 00000-0 -14641-3 0 9993
2 49087 87.9132 5.6852 0001915 84.5339 275.6011 13.17647681233749
Epoch: Jun 18, 2026 • Age: 10 hours

当前状态

高度 1215.5 km
速度 7.25 km/s
星下点 -52.77°S, 90.02°E
发射日期 Aug 21, 2021
运行时间 4.8 years
类型 internet

技术详情

分类 Payload
质量 148.00 kg
干质量 140.00 kg
总质量 148.00 kg
长度 1.30 m
直径 1.00 m
跨度 5.00 m
形状 Trapezoid+2 pan
制造商 ONEWUS
平台类型 ARROW
阶段状态 In Orbit
所有者/国家 ONEWEBN/UK

Most Searched